Location: G�ppingen
(48.7000°N, 9.6670°E)
Time: 14:28:02
(UTC+02:00)

ISS - Visible Passes

Search period start: 23 October 2019 00:00
Search period end: 01 November 2019 23:00
Orbit: 411 x 421 km, 51.6° (Epoch: 23 October)

Date Brightness Start Highest point End Pass type
(mag) Time Alt. Az. Time Alt. Az. Time Alt. Az.
24 Oct -0.8 06:49:53 10° S 06:51:47 14° SE 06:53:41 10° ESE visible
26 Oct -2.0 06:48:02 10° SSW 06:51:02 31° SE 06:54:04 10° E visible
27 Oct -1.4 05:00:54 14° S 05:02:36 20° SE 05:05:12 10° E visible
28 Oct -0.8 04:14:47 13° SE 04:14:47 13° SE 04:15:56 10° ESE visible
28 Oct -3.4 05:47:42 14° SW 05:50:26 64° SSE 05:53:46 10° ENE visible
29 Oct -2.9 05:01:27 40° S 05:01:54 43° SSE 05:05:07 10° ENE visible
30 Oct -1.0 04:15:04 19° E 04:15:04 19° E 04:16:21 10° E visible
30 Oct -3.8 05:47:58 23° W 05:49:56 74° NNW 05:53:18 10° ENE visible
31 Oct -3.7 05:01:29 77° E 05:01:29 77° E 05:04:40 10° ENE visible
01 Nov -0.9 04:14:56 19° ENE 04:14:56 19° ENE 04:16:01 10° ENE visible
01 Nov -3.4 05:47:50 26° WNW 05:49:29 53° N 05:52:47 10° ENE visible
